www.pogodaiklimat.ru

Погода и климат >> Архив погоды >> Россия >> Якутия >> Охотский Перевоз


ПОГОДА в Охотском Перевозе

  • Прогноз погоды в Охотском Перевозе
  • Монитор погоды в Охотском Перевозе
  • Климат города

АРХИВ ПОГОДЫ в Охотском Перевозе

Время (UTC), дата Ветер
(напр.,м/с)
 
Видим.   Явления Облачность Т
(С)
Тd
(С)
f
(%)
Тe
(С)
Тes
(С)
Комфортность P
(гПа)
Po
(гПа)
Тmin
(С)
Tmax
(С)
R
(мм)
R24
(мм)
S
(см)
06 17.05 Ю 2 50 км 1/1 600 м
[Cu hum]
+9.9 -4.0 37 +9 +17 997.9 981.2
09 17.05 ЮВ 2 20 км 4/1 600 м
[Cu hum Ci fib]
+12.9 -4.4 30 +13 +14 995.1 978.5 +13.8
12 17.05 Ю 7 20 км 5/0
[Cs]
+10.6 -2.4 40 +8 +8 994.6 977.9
15 17.05 ЮЗ 2 10 км 8/0
[Cs]
+8.2 -2.2 48 +7 +7 993.7 976.9
18 17.05 ЮЗ 4 10 км 8/0
[Ac As]
+7.6 -3.9 44 +5 +5 992.5 975.7
21 17.05 ЮЗ 4 10 км слабый дождь 10/0
[As op]
+3.1 +1.6 90 -2 -1 994.3 977.2 +3.1 2
00 18.05 ЮЗ 2 20 км {дождь} 10/10 600 м
[Frnb Ns]
+2.3 +0.4 87 -1 -1 996.8 979.6
03 18.05 ЮЗ 2 20 км {дождь} 10/10 600 м
[Frnb Ns]
+2.3 +0.4 87 -1 -1 996.8 979.6
06 18.05 З 3 10 км слабый ливневой дождь со снегом 10/9 600 м
[Cb calv]
+4.2 +2.5 89 0 +1 997.7 980.6
09 18.05 С 5 20 км в посл. час ливневой снег 10/10 600 м
[Cb calv]
+3.7 -2.9 62 -1 -1 1000.3 983.1 +6.2 5
12 18.05 штиль 0 20 км {ливн. осадки} 6/6 600 м
[Sc]
+2.2 -1.2 78 +1 +1 1001.8 984.5
15 18.05 Ю 2 10 км 3/3 600 м
[Cu Sc]
+1.4 -2.4 76 -2 -2 1003.3 985.9
18 18.05 СЗ 1 10 км {ливн. осадки} 4/4 600 м
[Cb calv]
-0.4 -1.6 92 -3 -3 1004.3 986.8
21 18.05 ЮЗ 2 20 км 3/0
[Ci fib]
-0.3 -4.7 72 -4 -2 1004.4 986.9 -0.2 0.0
00 19.05 З 3 20 км 4/4 1000 м
[Sc]
+2.3 -4.8 59 -1 +3 1003.6 986.3
03 19.05 З 3 20 км 9/6 1000 м
[Sc Ac As]
+6.0 -12.5 25 +4 +6 1003.0 985.9
06 19.05 С 3 20 км 10/4 600 м
[Frnb As op]
+2.1 -6.7 52 -1 -1 1005.0 987.6
09 19.05 СВ 4 20 км 8/3 1000 м
[Sc Ac As]
+2.8 -5.6 54 -1 -1 1006.6 989.2 +6.6
12 19.05 СВ 3 20 км 4/4 1000 м
[Sc]
+1.0 -3.2 74 -3 -3 1007.9 990.4
15 19.05 В 2 10 км 3/3 1000 м
[Sc]
-1.0 -2.5 90 -5 -5 1009.3 991.6
18 19.05 СЗ 2 10 км 9/9 600 м
[Cu Sc]
-3.4 -6.6 78 -7 -7 1009.4 991.6
21 19.05 СЗ 2 20 км 10/10 1000 м
[Sc]
-2.3 -8.7 61 -6 -6 1009.5 991.7 -3.7
00 20.05 СЗ 2 20 км 10/10 600 м
[Frnb]
-1.2 -8.7 57 -4 -4 1009.3 991.6
03 20.05 СЗ 2 20 км 10/10 600 м
[Frnb]
-0.5 -8.9 53 -4 -4 1009.4 991.8
06 20.05 З 3 20 км в посл. час снег 10/10 600 м
[Frnb]
-1.3 -3.8 83 -6 -6 1008.8 991.2
09 20.05 СЗ 2 20 км 10/10 600 м
[Frnb]
+1.1 -6.9 55 -2 -2 1008.4 990.9 +1.2 0.0
12 20.05 ЮЗ 1 20 км 8/6 600 м
[Cb calv Ci fib]
+0.6 -3.0 77 -1 -1 1008.4 990.9
15 20.05 штиль 0 10 км 8/8 600 м
[Cb calv]
-1.6 -3.5 87 -3 -3 1008.5 990.8
18 20.05 СЗ 1 10 км {ливн. осадки} 6/6 600 м
[Cb calv]
-3.1 -3.5 97 -6 -6 1008.3 990.5
21 20.05 СВ 1 20 км 9/9 600 м
[Cb calv]
-2.7 -3.4 95 -5 -5 1008.6 990.8 -3.9
00 21.05 С 3 20 км 9/9 600 м
[Cb calv]
+0.9 -3.3 73 -3 -3 1008.3 990.8
03 21.05 СЗ 3 20 км 9/9 600 м
[Cb calv]
+1.7 -3.4 69 -2 -1 1008.6 991.3
06 21.05 С 4 20 км {ливн. осадки} 10/10 600 м
[Cb calv]
+2.6 -5.5 55 -2 -2 1009.7 992.3
09 21.05 СЗ 4 20 км 10/10 600 м
[Sc diur, vesp]
+3.7 -8.7 40 0 0 1009.4 992.1 +4.0 0.0
12 21.05 С 2 20 км 9/1 600 м
[Sc Ac trans]
+3.1 -6.9 48 +1 +1 1009.4 992.0
15 21.05 штиль 0 10 км 8/1 600 м
[Sc Ac trans]
+0.4 -0.7 92 -1 -1 1009.9 992.4
18 21.05 З 1 10 км 3/0
[Ac trans Ci fib]
-0.9 -6.2 67 -3 -3 1010.4 992.6
21 21.05 СЗ 1 20 км 3/0
[Ci fib]
-0.5 -6.0 66 -2 +1 1010.9 993.1 -2.0
00 22.05 СВ 2 20 км 5/0
[Ci fib]
+3.7 -5.9 49 +2 +10 опасность
простуды
1010.9 993.5
03 22.05 В 2 50 км 3/0
[Ci fib]
+6.5 -6.6 39 +5 +17 опасность
простуды
1009.5 992.3
06 22.05 СВ 2 50 км ясно +8.0 -8.0 31 +7 +16 опасность
простуды
1008.7 991.6
09 22.05 СВ 2 20 км 1/0
[Ci fib]
+9.4 -7.2 30 +9 +11 1008.2 991.2 +19.6
12 22.05 СВ 2 20 км ясно +7.1 -4.3 44 +6 +6 1008.2 991.1
15 22.05 С 2 10 км ясно +1.5 -4.3 65 -1 -1 1008.3 990.8
18 22.05 СЗ 1 10 км ясно -2.1 -4.9 81 -4 -4 1008.5 990.8
21 22.05 С 2 20 км ясно +1.0 -3.5 72 -2 0 1008.3 990.8 -2.4
00 23.05 С 2 50 км ясно +7.5 -2.5 49 +6 +15 опасность
простуды
1006.9 989.8
03 23.05 СВ 4 50 км 1/0
[Ci fib]
+11.8 -6.6 27 +10 +19 1005.5 988.7
06 23.05 С 3 50 км 3/0
[Ci fib]
+13.4 -2.6 33 +13 +20 1004.4 987.6
09 23.05 С 3 20 км 3/0
[Ci fib]
+17.1 -6.5 19 +17 +19 1003.4 986.9 +18.7
12 23.05 СВ 3 20 км 1/0
[Ci fib]
+16.0 -7.2 20 +16 +16 1004.2 987.6
15 23.05 С 2 10 км 1/0
[Ci fib]
+6.6 -2.4 53 +5 +5 1005.1 987.9
18 23.05 СЗ 1 10 км 3/3 600 м
[Sc Ci fib]
+0.7 -3.9 71 -1 -1 1006.5 989.0
21 23.05 ЮВ 1 20 км 6/0
[Ac cast]
+3.7 -3.6 59 +3 +4 1007.2 989.9 -0.6
00 24.05 Ю 2 20 км 1/0
[Ac cast]
+11.3 -4.4 33 +11 +19 1006.9 990.0
03 24.05 ЮЗ 4 50 км 3/0
[Ac lent Ci fib]
+20.6 -3.4 20 +20 +28 1004.8 988.5

 

Местоположение метеостанции Охотский Перевоз (Якутия, Россия): широта 61.87 долгота 135.50 высота над уровнем моря 141 м.

В архиве по умолчанию представлена погода в Охотском Перевозе за последнюю неделю. Архивные данные за месяц целиком и за предыдущие месяцы, начиная с января 2011 года, Вы можете получить, выбрав интересующий диапазон дат из раскрывающегося списка и нажав кнопку "Ввод!".

Внимание! Время в таблицах - всемирное. Для получения местного времени необходимо прибавить поправку, которая в Охотском Перевозе равна 9 ч.

Смотрите также архив погоды в соседних городах и на ближайших метеорологических станциях:

Погода в Ытык-Кюёле (Якутия, Россия) (118 км)
Погода в Крест-Хальджае (Якутия, Россия) (120 км)
Погода в Теплом Ключе (Якутия, Россия) (121 км)
Погода в Чурапче (Якутия, Россия) (153 км)
Погода в Усть-Мае (Якутия, Россия) (179 км)
Погода в Амге (Якутия, Россия) (220 км)
Погода в Томпо (Якутия, Россия) (232 км)
Погода в Верхоянском Перевозе (Якутия, Россия) (241 км)
Погода в Восточной (Якутия, Россия) (259 км)
Погода в Югоренке (Якутия, Россия) (260 км)

Пояснения к столбцам:

Ветер - указаны скорость ветра в м/с - средняя за 10 мин, порывы в срок и между сроками (в фигурных скобках) и направление, откуда дует ветер: С - северный, СВ - северо-восточный, В - восточный, ЮВ - юго-восточный, Ю - южный, ЮЗ - юго-западный, З - западный, СЗ - северо-западный.
Видимость - горизонтальная дальность видимости в метрах или километрах. При видимости от 1 до 10 км при отсутствии осадков обычно наблюдается дымка, при ухудшении видимости до 1 км и менее - туман. В сухую погоду видимость может ухудшаться дымом, пылью или мглою.
Явления - указаны атмосферные явления, наблюдавшиеся в срок или в последний час перед сроком; фигурными скобками обозначены явления, наблюдавшиеся между сроками (за 1-3 часа до срока); квадратными скобками обозначены град или гололедные отложения с указанием их диаметра в мм.
Облачность - указаны через наклонную черту общая и нижняя облачность в баллах и высота нижней границы облаков в метрах; квадратными скобками обозначены формы облаков: Ci - перистые, Cs - перисто-слоистые, Cc - перисто-кучевые, Ac - высококучевые, As - высокослоистые, Sc - слоисто-кучевые, Ns - слоисто-дождевые, Cu - кучевые, Cb - кучево-дождевые. Подробнее классификацию облаков см. в Атласе облаков (PDF).
T - Температура воздуха - температура, измеренная на высоте 2 м над землей.
Td - Температура точки росы - температура, при понижении до которой содержащийся в воздухе водяной пар достигнет насыщения.
f - Относительная влажность воздуха - влажноcть воздуха, измеренная на высоте 2 м над землей.
Te - Эффективная температура - температура, которую ощущает одетый по сезону человек в тени. Характеристика душности погоды. При расчете учитывается влияние влажности воздуха и скорости ветра на теплоощущения человека.
Tes - Эффективная температура на солнце - температура, которую ощущает человек, с поправкой на солнечный нагрев. Характеристика знойности погоды. Зависит от высоты солнца над горизонтом, облачности и скорости ветра. Ночью, в пасмурную погоду, а также при ветре 12 м/с и более поправка равна нулю.
P - Атмосферное давление - приведенное к уровню моря атмосферное давление.
Po - Атмосферное давление - измеренное на уровне метеостанции атмосферное давление.
Tmin - Минимальная температура - минимум температуры воздуха на высоте 2 м над землей.
Tmax - Максимальная температура - максимум температуры воздуха на высоте 2 м над землей.
R - Количество осадков - Количество выпавших осадков за период времени, мм. При наведении курсора мыши на число - период времени, за который выпало указанное количество осадков.
R24 - Количество осадков - Количество выпавших осадков за 24 часа, мм.
S - Снежный покров - Высота снежного покрова, см. При наведении курсора мыши на число - состояние снежного покрова и степень покрытия местности в баллах.